Showing default

ORBCOMM FM 112, 41184

Orbit data source: Space-Track

ORBCOMM FM 112, 41184 is a payload satellite owned by Orbcomm (US) in LEO that was launched on Tue, 22 Dec 2015 UTC via an FALCON 9 launch vehicle from the Air Force Eastern Test Range (AFETR). Payload-class satellites include a variety of spacecraft equipped with specific instruments for various scientific and technological missions. These include communications satellites like Starlink; space stations such as the ISS; scientific satellites like the Hubble; Earth observation satellites from companies like Planet Labs, Umbra, and HawkEye 360; GPS; miniature CubeSats for education and research; and military/defense satellites.

Loading next visibility...
Identifier
41184, 2015-081F
Orbit
LEO
Country
Flag of USUS / ORB
Related business
Manufacturer
SNC Louisville
Mission
Operational Commercial Communications
Bus & Motor
SN-100A, Unknown motor
Mass
172 kg wet, 158 kg dry
Launch date (UTC)
2015-12-22 (11 years ago)
Launch vehicle
FALCON 9
Launch site
Air Force Eastern Test Range (AFETR)
Object type
Payload
Rocket body
Debris
Shape & HBR
Box + 1 Pan + 1 Ant, 5.3 m
Radar Cross Section
2.222 m², Large (>1 m²)

Expand to show TLE details & history
Last TLE update: 2 days ago

TLE from 2 days ago
0 ORBCOMM FM 112
1 41184U 15081F   26237.24199339  .00000438  00000-0  12864-3 0  9992
2 41184  46.9996 303.6849 0002966 186.6276 173.4571 14.58937831569035
Epoch: 2026-08-25T05:48Z
TLE epoch observation values (Epoch: 2026-08-25T05:48:28.228Z)
Latitude
-0.00004°
Longitude
-116.94491°
Altitude
698.906 km
Speed
7.507 km/s
True Right ascension
20h 14m 44s
True Declination
0° 00' 00"
Sunlit
Object was in full shadow at epoch
Visualization orbit readout
Latitude
Unknown
Longitude
Unknown
Altitude
Unknown
Speed
Unknown
Apparent Right ascension
Unknown
Apparent Declination
Unknown
Sunlit
N/A
Visualization observer readout
Local Sidereal Time
09:53:41
Azimuth
Unknown
Elevation
Unknown
Doppler factor
Unknown
Orbital elements
Apogee altitude
699.94 km
Perigee altitude
695.742 km
Semi-major axis
7,075.978 km
Eccentricity
0.0003
Inclination
46.9996°
RAAN
303.6849°
Arg. of periapsis
186.6276°
True anomaly
173.46097°
Mean anomaly
173.4571°
Eccentric anomaly
173.45904°
Mean motion
3.64639 °/min
Orbital period
98.73 mins
BSTAR
0.00012864
Loading maneuver chart data...
Computing Atmospheric mass density...
Loading historical data...
Loading historical data...
Loading historical data...
Loading historical data...
Loading historical data...
Loading historical data...
Loading historical data...

Documentation

Showing up to 5 results
|